View from above orbital plane
|
View from above satellite
|
Ground track
|
The orbit data is extracted from the following two-line orbital elements,
1 18421U 87088A 21016.68790510 .00000396 00000-0 18107-4 0 9992
2 18421 82.4991 62.4785 0016090 50.0573 310.2071 15.17423782816884
Epoch (UTC): | 16 January 2021 16:30:35 |
Eccentricity: | 0.0016090 |
inclination: | 82.4991° |
perigee height: | 502 km |
apogee height: | 525 km |
right ascension of ascending node: | 62.4785° |
argument of perigee: | 50.0573° |
revolutions per day: | 15.17423782 |
mean anomaly at epoch: | 310.2071° |
orbit number at epoch: | 81688 |
The dashed part of the orbit path shows where the satellite is in the earth's shadow,
|
|